Time,TemperatureF,DewpointF,PressureIn,WindDirection,WindDirectionDegrees,WindSpeedMPH,WindSpeedGustMPH,Humidity,HourlyPrecipIn,Conditions,Clouds,dailyrainin,SoftwareType,DateUTC
2013-07-28 00:32:00,57.0,25.0,29.87,SSW,204,2.0,3.0,29,0.00,,,0.00,,2013-07-28 07:32:00,
2013-07-28 00:42:00,57.0,27.0,29.87,West,261,1.0,2.0,31,0.00,,,0.00,,2013-07-28 07:42:00,
2013-07-28 00:53:00,57.0,27.0,29.87,West,261,1.0,2.0,31,0.00,,,0.00,,2013-07-28 07:53:00,
2013-07-28 01:02:00,57.0,31.0,29.87,SW,229,2.0,3.0,37,0.00,,,0.00,,2013-07-28 08:02:00,
2013-07-28 01:12:00,57.0,32.0,29.87,SW,219,1.0,2.0,38,0.00,,,0.00,,2013-07-28 08:12:00,
2013-07-28 01:33:00,57.0,32.0,29.87,WSW,258,4.0,7.0,38,0.00,,,0.00,,2013-07-28 08:33:00,
2013-07-28 01:42:00,58.0,31.0,29.87,West,278,7.0,9.0,35,0.00,,,0.00,,2013-07-28 08:42:00,
2013-07-28 01:53:00,58.0,31.0,29.87,WNW,292,6.0,9.0,36,0.00,,,0.00,,2013-07-28 08:53:00,
2013-07-28 02:02:00,56.0,29.0,29.84,WNW,301,5.0,9.0,36,0.00,,,0.00,,2013-07-28 09:02:00,
2013-07-28 02:12:00,56.0,29.0,29.84,WNW,285,5.0,7.0,36,0.00,,,0.00,,2013-07-28 09:12:00,
2013-07-28 02:22:00,56.0,29.0,29.84,WNW,285,5.0,7.0,36,0.00,,,0.00,,2013-07-28 09:22:00,
2013-07-28 02:32:00,56.0,29.0,29.87,West,261,5.0,6.0,36,0.00,,,0.00,,2013-07-28 09:32:00,
2013-07-28 02:43:00,57.0,30.0,29.87,WSW,250,5.0,9.0,35,0.00,,,0.00,,2013-07-28 09:43:00,
2013-07-28 02:53:00,57.0,29.0,29.84,WSW,248,3.0,6.0,34,0.00,,,0.00,,2013-07-28 09:53:00,
2013-07-28 03:02:00,56.0,28.0,29.87,SSW,213,1.0,6.0,34,0.00,,,0.00,,2013-07-28 10:02:00,
2013-07-28 03:12:00,56.0,27.0,29.87,SW,225,2.0,6.0,32,0.00,,,0.00,,2013-07-28 10:12:00,
2013-07-28 03:22:00,56.0,27.0,29.87,SW,225,2.0,6.0,32,0.00,,,0.00,,2013-07-28 10:22:00,
2013-07-28 03:32:00,56.0,27.0,29.84,SSW,192,1.0,2.0,32,0.00,,,0.00,,2013-07-28 10:32:00,
2013-07-28 03:42:00,53.0,24.0,29.87,South,174,1.0,2.0,32,0.00,,,0.00,,2013-07-28 10:42:00,
2013-07-28 03:52:00,53.0,24.0,29.87,South,174,1.0,2.0,32,0.00,,,0.00,,2013-07-28 10:52:00,
2013-07-28 04:11:00,52.0,22.0,29.87,SSW,193,1.0,1.0,31,0.00,,,0.00,,2013-07-28 11:11:00,
2013-07-28 04:22:00,51.0,21.0,29.87,SE,143,3.0,3.0,31,0.00,,,0.00,,2013-07-28 11:22:00,
2013-07-28 04:33:00,49.0,20.0,29.84,ESE,116,3.0,5.0,31,0.00,,,0.00,,2013-07-28 11:33:00,
2013-07-28 04:43:00,48.0,20.0,29.84,SE,135,3.0,3.0,32,0.00,,,0.00,,2013-07-28 11:43:00,
2013-07-28 05:22:00,49.0,20.0,29.84,ESE,112,2.0,3.0,32,0.00,,,0.00,,2013-07-28 12:22:00,
2013-07-28 06:12:00,48.0,20.0,29.87,SSW,212,1.0,3.0,33,0.00,,,0.00,,2013-07-28 13:12:00,
2013-07-28 06:32:00,50.0,21.0,29.84,ESE,112,2.0,2.0,32,0.00,,,0.00,,2013-07-28 13:32:00,
2013-07-28 06:43:00,49.0,21.0,29.84,SSE,159,2.0,3.0,33,0.00,,,0.00,,2013-07-28 13:43:00,
2013-07-28 06:52:00,49.0,21.0,29.84,SSE,159,2.0,3.0,33,0.00,,,0.00,,2013-07-28 13:52:00,
2013-07-28 07:02:00,53.0,25.0,29.84,SSW,192,1.0,3.0,33,0.00,,,0.00,,2013-07-28 14:02:00,
2013-07-28 09:33:00,65.0,28.0,29.87,WNW,286,7.0,12.0,25,0.00,,,0.00,,2013-07-28 16:33:00,
2013-07-28 09:43:00,66.0,29.0,29.87,West,260,7.0,10.0,25,0.00,,,0.00,,2013-07-28 16:43:00,
2013-07-28 09:52:00,66.0,29.0,29.87,West,260,7.0,10.0,25,0.00,,,0.00,,2013-07-28 16:52:00,
2013-07-28 10:02:00,67.0,29.0,29.84,West,269,8.0,12.0,24,0.00,,,0.00,,2013-07-28 17:02:00,
2013-07-28 10:12:00,67.0,29.0,29.84,West,269,8.0,12.0,24,0.00,,,0.00,,2013-07-28 17:12:00,
2013-07-28 10:22:00,68.0,29.0,29.84,SW,223,6.0,14.0,23,0.00,,,0.00,,2013-07-28 17:22:00,
2013-07-28 10:32:00,69.0,30.0,29.84,West,272,8.0,10.0,23,0.00,,,0.00,,2013-07-28 17:32:00,
2013-07-28 10:43:00,70.0,30.0,29.84,West,259,7.0,13.0,23,0.00,,,0.00,,2013-07-28 17:43:00,
2013-07-28 10:53:00,70.0,30.0,29.84,West,259,7.0,13.0,23,0.00,,,0.00,,2013-07-28 17:53:00,
2013-07-28 11:02:00,72.0,31.0,29.84,West,280,6.0,10.0,22,0.00,,,0.00,,2013-07-28 18:02:00,
2013-07-28 11:12:00,71.0,30.0,29.84,WNW,286,7.0,12.0,22,0.00,,,0.00,,2013-07-28 18:12:00,
2013-07-28 11:32:00,73.0,32.0,29.84,SW,222,5.0,9.0,22,0.00,,,0.00,,2013-07-28 18:32:00,
2013-07-28 11:42:00,74.0,32.0,29.84,WNW,300,6.0,9.0,21,0.00,,,0.00,,2013-07-28 18:42:00,
2013-07-28 11:52:00,75.0,31.0,29.84,West,273,5.0,9.0,20,0.00,,,0.00,,2013-07-28 18:52:00,
2013-07-28 12:02:00,75.0,31.0,29.84,West,273,5.0,9.0,20,0.00,,,0.00,,2013-07-28 19:02:00,
2013-07-28 12:12:00,77.0,30.0,29.84,WNW,301,6.0,12.0,18,0.00,,,0.00,,2013-07-28 19:12:00,
2013-07-28 12:32:00,77.0,26.0,29.84,NW,313,6.0,10.0,15,0.00,,,0.00,,2013-07-28 19:32:00,
2013-07-28 12:52:00,77.0,30.0,29.84,WNW,297,6.0,10.0,18,0.00,,,0.00,,2013-07-28 19:52:00,
2013-07-28 13:02:00,77.0,30.0,29.84,WNW,287,4.0,10.0,18,0.00,,,0.00,,2013-07-28 20:02:00,
2013-07-28 13:12:00,78.0,31.0,29.84,NW,310,5.0,10.0,18,0.00,,,0.00,,2013-07-28 20:12:00,
2013-07-28 13:22:00,80.0,31.0,29.84,SSW,198,5.0,12.0,17,0.00,,,0.00,,2013-07-28 20:22:00,
2013-07-28 13:32:00,81.0,32.0,29.81,WNW,287,6.0,12.0,17,0.00,,,0.00,,2013-07-28 20:32:00,
2013-07-28 13:43:00,79.0,30.0,29.81,NNW,328,7.0,15.0,17,0.00,,,0.00,,2013-07-28 20:43:00,
2013-07-28 13:52:00,79.0,30.0,29.81,NW,309,4.0,14.0,17,0.00,,,0.00,,2013-07-28 20:52:00,
2013-07-28 14:02:00,80.0,30.0,29.81,WNW,292,7.0,13.0,16,0.00,,,0.00,,2013-07-28 21:02:00,
2013-07-28 14:11:00,80.0,30.0,29.81,WNW,292,7.0,13.0,16,0.00,,,0.00,,2013-07-28 21:11:00,
2013-07-28 14:22:00,79.0,30.0,29.81,NW,312,7.0,13.0,17,0.00,,,0.00,,2013-07-28 21:22:00,
2013-07-28 14:32:00,80.0,28.0,29.81,NNW,327,4.0,10.0,15,0.00,,,0.00,,2013-07-28 21:32:00,
2013-07-28 14:43:00,80.0,28.0,29.81,NW,319,8.0,23.0,15,0.00,,,0.00,,2013-07-28 21:43:00,
2013-07-28 14:52:00,81.0,27.0,29.81,WNW,287,8.0,14.0,14,0.00,,,0.00,,2013-07-28 21:52:00,
2013-07-28 15:01:00,81.0,27.0,29.81,NW,307,5.0,14.0,14,0.00,,,0.00,,2013-07-28 22:01:00,
2013-07-28 15:11:00,81.0,27.0,29.81,NW,307,5.0,14.0,14,0.00,,,0.00,,2013-07-28 22:11:00,
2013-07-28 15:22:00,81.0,27.0,29.81,WNW,301,8.0,13.0,14,0.00,,,0.00,,2013-07-28 22:22:00,
2013-07-28 15:32:00,82.0,28.0,29.81,West,276,7.0,13.0,14,0.00,,,0.00,,2013-07-28 22:32:00,
2013-07-28 15:43:00,82.0,28.0,29.81,WNW,300,9.0,13.0,14,0.00,,,0.00,,2013-07-28 22:43:00,
2013-07-28 16:02:00,81.0,27.0,29.81,West,279,7.0,14.0,14,0.00,,,0.00,,2013-07-28 23:02:00,
2013-07-28 16:32:00,81.0,27.0,29.78,NW,326,11.0,15.0,14,0.00,,,0.00,,2013-07-28 23:32:00,
2013-07-28 16:43:00,81.0,27.0,29.78,WNW,294,8.0,15.0,14,0.00,,,0.00,,2013-07-28 23:43:00,
2013-07-28 16:53:00,80.0,28.0,29.78,West,279,10.0,13.0,15,0.00,,,0.00,,2013-07-28 23:53:00,
2013-07-28 17:02:00,81.0,27.0,29.78,NW,316,9.0,13.0,14,0.00,,,0.00,,2013-07-29 00:02:00,
2013-07-28 17:11:00,81.0,27.0,29.78,NW,316,9.0,13.0,14,0.00,,,0.00,,2013-07-29 00:11:00,
2013-07-28 17:43:00,80.0,30.0,29.78,WNW,300,10.0,14.0,16,0.00,,,0.00,,2013-07-29 00:43:00,
2013-07-28 18:01:00,79.0,27.0,29.78,NW,322,10.0,14.0,15,0.00,,,0.00,,2013-07-29 01:01:00,
2013-07-28 18:11:00,79.0,27.0,29.78,NW,322,10.0,14.0,15,0.00,,,0.00,,2013-07-29 01:11:00,
2013-07-28 18:23:00,79.0,27.0,29.78,WNW,285,8.0,14.0,15,0.00,,,0.00,,2013-07-29 01:23:00,
2013-07-28 18:42:00,78.0,31.0,29.78,NW,314,9.0,13.0,18,0.00,,,0.00,,2013-07-29 01:42:00,
2013-07-28 18:54:00,77.0,30.0,29.78,NW,308,9.0,14.0,18,0.00,,,0.00,,2013-07-29 01:54:00,
2013-07-28 19:12:00,76.0,29.0,29.78,WNW,292,10.0,14.0,18,0.00,,,0.00,,2013-07-29 02:12:00,
2013-07-28 19:23:00,76.0,29.0,29.78,NW,323,7.0,13.0,18,0.00,,,0.00,,2013-07-29 02:23:00,
2013-07-28 19:33:00,75.0,29.0,29.78,West,281,8.0,13.0,18,0.00,,,0.00,,2013-07-29 02:33:00,
2013-07-28 19:44:00,73.0,31.0,29.78,WNW,300,9.0,14.0,21,0.00,,,0.00,,2013-07-29 02:44:00,
2013-07-28 20:02:00,71.0,30.0,29.78,WNW,288,7.0,10.0,22,0.00,,,0.00,,2013-07-29 03:02:00,
2013-07-28 21:11:00,66.0,29.0,29.81,WNW,285,5.0,7.0,25,0.00,,,0.00,,2013-07-29 04:11:00,
2013-07-28 21:32:00,64.0,28.0,29.81,WSW,246,4.0,7.0,26,0.00,,,0.00,,2013-07-29 04:32:00,
2013-07-28 21:43:00,64.0,28.0,29.81,SW,227,3.0,6.0,26,0.00,,,0.00,,2013-07-29 04:43:00,
2013-07-28 21:53:00,63.0,28.0,29.81,West,278,3.0,7.0,26,0.00,,,0.00,,2013-07-29 04:53:00,
2013-07-28 22:02:00,62.0,28.0,29.81,SSW,208,2.0,3.0,27,0.00,,,0.00,,2013-07-29 05:02:00,
2013-07-28 22:12:00,62.0,28.0,29.81,SSW,208,2.0,3.0,27,0.00,,,0.00,,2013-07-29 05:12:00,
2013-07-28 22:32:00,61.0,28.0,29.81,South,177,2.0,5.0,28,0.00,,,0.00,,2013-07-29 05:32:00,
2013-07-28 22:53:00,60.0,28.0,29.81,SW,228,3.0,5.0,29,0.00,,,0.00,,2013-07-29 05:53:00,
2013-07-28 23:02:00,60.0,28.0,29.81,SW,220,3.0,5.0,30,0.00,,,0.00,,2013-07-29 06:02:00,
2013-07-28 23:12:00,60.0,28.0,29.81,SW,220,3.0,5.0,30,0.00,,,0.00,,2013-07-29 06:12:00,
2013-07-28 23:22:00,59.0,27.0,29.81,SW,227,2.0,3.0,29,0.00,,,0.00,,2013-07-29 06:22:00,
2013-07-28 23:32:00,59.0,28.0,29.81,SSE,158,2.0,3.0,30,0.00,,,0.00,,2013-07-29 06:32:00,